Home > Weather > Nagercoil > Past weeks

Flag for India Weather for the Past 2 Weeks in Nagercoil, Tamil Nadu, India

Now
81 °F

Haze.


Feels Like: 86 °F
Forecast: 74 / 94 °F
Wind: No wind

Location: Thiruvananthapuram

Current Time: Feb 11, 2016 at 8:06:42 AM

Latest Report: Feb 11, 2016 at 7:30 AM


Visibility: 2 mi

Pressure: 29.86 "Hg

Humidity: 84%

Dew point: 75 °F

Location of NagercoilLocation

Historic Weather in Nagercoil — Graph

°F

Nagercoil Temperature Yesterday

Maximum temperature yesterday: 91 °F (at 12:00 PM)
Minimum temperature yesterday: 79 °F (at 5:30 AM)
Average temperature yesterday: 85 °F

High & Low Weather Summary for the Past Weeks

 TemperatureHumidityPressure
High91 °F (Jan 28, 1:30 PM)94% (Jan 28, 5:30 AM)29.98 "Hg (Jan 28, 5:30 AM)
Low72 °F (Feb 2, 5:30 AM)38% (Jan 30, 10:00 AM)29.65 "Hg (Feb 3, 5:30 PM)
Average83 °F71%29.86 "Hg
* Reported Jan 27 6:30 AM — Feb 11 6:30 AM, Nagercoil, Weather by CustomWeather, © 2016

Note: Actual official high and low records may vary slightly from our data, if they occured in-between our weather recording intervals... More about our weather records

Advertising

Nagercoil Weather History for the Previous 24 Hours

 ConditionsComfort  
Time TempWeatherWind HumidityBarometerVisibility
6:30 AM
Thu, Feb 11
79 °FPassing clouds.No wind89%29.83 "Hg2 mi
6:00 AM79 °FPassing clouds.No wind89%29.83 "Hg2 mi
5:30 AM81 °FPartly cloudy.No wind84%29.83 "Hg2 mi
4:30 AM81 °FPartly cloudy.No wind84%29.80 "Hg2 mi
4:00 AM81 °FPartly cloudy.No wind84%29.80 "Hg2 mi
3:00 AM81 °FPartly cloudy.3 mph84%29.80 "Hg2 mi
2:30 AM81 °FPartly cloudy.3 mph84%29.83 "Hg2 mi
2:00 AM81 °FPartly cloudy.3 mph84%29.83 "Hg2 mi
1:30 AM81 °FPartly cloudy.3 mph84%29.83 "Hg2 mi
1:00 AM81 °FPartly cloudy.No wind89%29.86 "Hg2 mi
12:30 AM82 °FPartly cloudy.3 mph84%29.86 "Hg2 mi
12:00 AM82 °FPartly cloudy.3 mph79%29.86 "Hg2 mi
11:30 PM
Wed, Feb 10
82 °FPartly cloudy.3 mph79%29.89 "Hg2 mi
11:00 PM82 °FPartly cloudy.3 mph79%29.89 "Hg2 mi
10:30 PM82 °FPartly cloudy.3 mph79%29.89 "Hg2 mi
10:00 PM82 °FPartly cloudy.3 mph79%29.89 "Hg2 mi
9:30 PM82 °FPartly cloudy.3 mph79%29.86 "Hg2 mi
9:00 PM82 °FPartly cloudy.5 mph79%29.89 "Hg2 mi
8:30 PM82 °FPartly cloudy.5 mph79%29.86 "Hg2 mi
7:30 PM82 °FPartly cloudy.6 mph79%29.86 "Hg2 mi
7:00 PM84 °FThunderstorms. Cloudy.7 mph74%29.83 "Hg2 mi
6:30 PM86 °FThunderstorms. Cloudy.3 mph75%29.83 "Hg2 mi
6:00 PM86 °FThunderstorms. Cloudy.7 mph75%29.83 "Hg2 mi
5:30 PM88 °FBroken clouds.6 mph66%29.80 "Hg2 mi
4:30 PM90 °FScattered clouds.7 mph63%29.77 "Hg3 mi
4:00 PM90 °FHaze.8 mph67%29.77 "Hg3 mi
3:30 PM90 °FHaze.8 mph67%29.77 "Hg3 mi
3:00 PM91 °FHaze.8 mph63%29.80 "Hg3 mi
2:30 PM91 °FHaze.8 mph63%29.80 "Hg3 mi
2:00 PM90 °FHaze.9 mph67%29.80 "Hg3 mi
1:30 PM90 °FHaze.8 mph67%29.83 "Hg3 mi
1:00 PM90 °FHaze.8 mph67%29.83 "Hg3 mi
12:30 PM88 °FHaze.9 mph75%29.86 "Hg3 mi
12:00 PM91 °FPassing clouds.7 mph67%29.86 "Hg4 mi
11:30 AM88 °FPassing clouds.8 mph70%29.89 "Hg4 mi
11:00 AM88 °FPassing clouds.9 mph70%29.89 "Hg4 mi
10:30 AM86 °FHaze.6 mph75%29.89 "Hg3 mi
10:00 AM88 °FHaze.6 mph70%29.92 "Hg2 mi
9:30 AM86 °FHaze.5 mph75%29.89 "Hg2 mi
9:00 AM86 °FHaze.3 mph75%29.89 "Hg2 mi
8:30 AM84 °FHaze.No wind79%29.89 "Hg1 mi
8:00 AM82 °FHaze.3 mph79%29.89 "Hg1 mi
Weather by CustomWeather, © 2016

See weather overviewHow to use our weather pages